Temp_Advection
nan nan nan nan nan nan nan nan nan nan nan nan nan nan nan nan nan nan nan nan nan nan nan nan nan nan nan nan nan nan nan nan nan nan nan nan nan nan nan nan nan nan nan nan nan nan nan nan nan nan nan nan nan nan nan nan nan nan nan nan nan nan nan nan nan nan nan nan nan
nan 0 0 0 0 -0 -0 -0 -0 -0 -0 -0 -0 -0 -0 -0 -0 -0 -0 -0 -0 -0 -0 -0 -0 -0 -0 -0 -0 -0 -0 -0 -0 -0 -0 -0 -0 -0 -0 -0 -0 -0 -0 -0 -0 -0 -0 -0 -0 -1 -1 -1 -1 -1 -1 -0 -0 -0 -0 -0 -0 -0 -0 -0 -0 -0 -0 -0 nan
nan 0 0 0 0 0 -0 -0 -0 -0 -0 -0 -0 -0 -0 -0 -0 -0 -0 -0 -0 -0 -0 -0 -0 -0 -0 -0 -0 -0 -0 -0 -0 -0 -0 -0 -0 -0 -0 -0 -0 -0 -0 -0 -0 -0 -0 -0 -0 -0 -1 -1 -1 -1 -1 -0 -0 -0 -0 -0 -0 -0 -0 -0 -0 -0 -0 -0 nan
nan 0 0 0 0 -0 -0 -0 -0 -0 -0 -0 -0 -0 -0 -0 -0 -0 -0 -0 -0 -0 -0 -0 -0 -0 -0 -0 -0 -0 -0 -0 -0 -0 -0 -0 -0 -0 -0 -0 -0 -0 -0 -0 -0 -0 -0 -0 -0 -0 -0 -1 -1 -1 -0 -0 -0 -0 -0 -0 -0 -0 -0 -0 -0 -0 -0 -0 nan
nan 0 0 0 -0 -0 -0 -0 -0 -0 -0 -0 -0 -0 -0 -0 -0 -0 -0 -1 -1 -1 -0 -0 -0 -0 -0 -0 -0 -0 -0 -0 -0 -0 -0 -0 -0 -0 -0 -0 -0 -0 -0 -0 -0 -0 -0 -0 -0 -0 -0 -0 -0 -0 -0 -0 -0 -0 -0 -0 -0 -0 -0 -0 -0 -0 -0 -0 nan
nan 0 0 0 -0 -0 -0 -0 -0 -0 -0 -0 -0 -0 -0 -0 -0 -0 -0 -1 -1 -1 -1 -0 -0 -0 -0 -0 -0 -0 -0 -0 -0 -0 -0 -0 -0 -0 -0 -0 -0 -0 -0 -0 -0 -0 -0 -0 -0 -0 -0 -0 -0 -0 -0 -0 -0 -0 -0 -0 -0 -0 -0 -0 -0 -0 -0 -0 nan
nan 0 0 0 -0 -0 -0 -0 -0 -0 -0 -0 -0 -0 -0 -0 -0 -0 -0 -0 -1 -1 -0 -0 -0 -0 -0 -0 -0 -0 -0 -0 -0 -0 -0 -0 -0 -0 -0 -0 -0 -0 -0 -0 -0 -0 -0 -0 -0 -0 -0 -0 -0 -0 -0 0 0 -0 -0 -0 -0 -0 -0 -0 -0 -0 -0 -0 nan
nan 0 0 0 -0 -0 -0 -0 -0 -0 -0 -0 -0 -0 -0 -0 -0 -0 -0 -0 -0 -0 -0 -0 -0 -0 -0 -0 -0 -0 -0 -0 -0 -0 -0 -0 -0 -0 -0 -0 -0 -0 -0 -0 -0 -0 -1 -0 -0 -0 -0 -0 -0 -0 -0 0 0 -0 -0 -0 -0 -0 -0 -0 -0 -0 -0 -0 nan
nan 0 0 0 0 -0 -0 -0 -0 -0 -0 -0 -0 -0 -0 -0 -0 -0 -0 -0 -0 -0 -0 -0 -0 -0 -0 -0 -0 -0 -0 -0 -0 -0 -0 -0 -0 -0 -0 -0 -0 -0 -0 -0 -0 -0 -0 -0 -0 -0 -0 -0 -0 -0 -0 -0 0 -0 -0 -0 -0 -0 -0 -0 -0 -0 -0 -0 nan
nan 0 0 0 0 0 -0 -0 -0 -0 -0 -0 -0 -0 -0 -0 -0 -0 -0 -0 -0 -0 -0 -0 -0 -0 -0 -0 -0 -0 -0 -0 -0 -0 -0 -0 -0 -0 -0 -0 -0 -0 -0 -0 -0 -0 -0 -0 -0 -0 -0 0 0 -0 -0 -0 -0 -0 -0 -0 -1 -1 -0 -0 -0 -0 -0 -0 nan
nan 0 0 0 0 0 -0 -0 -0 -0 -0 -0 -0 -0 -0 -0 -0 -0 -0 -0 -0 -0 -0 -0 -0 -0 -0 -0 -0 -0 -0 -0 -0 -0 -0 -0 -0 -0 -0 -0 -0 -0 -0 -0 -0 -0 -0 -0 -0 -0 -0 -0 0 -0 -0 -0 -0 -0 -0 -0 -1 -1 -1 -1 -0 -0 -0 -0 nan
nan 0 0 0 0 -0 -0 -0 -0 -0 -0 -0 -0 -0 -0 -0 -0 -0 -0 -0 0 0 -0 -0 -0 -0 -0 -0 -0 -0 -0 -0 -0 -0 -0 -0 -0 -0 -0 -0 -0 -0 -0 -0 0 0 0 0 -0 -0 -0 -0 -0 -0 -0 -0 -0 -0 -0 -0 -0 -1 -1 -1 -1 -0 -0 -1 nan
nan 0 0 0 -0 -0 -0 -0 -0 -0 -0 -0 -0 -0 -0 -0 -0 -0 -0 -0 0 0 -0 -0 -0 -0 -0 -0 -0 -0 -0 -0 -0 -0 -0 -0 -0 -0 -0 -0 -0 -0 -0 -0 0 0 0 0 -0 -0 -0 -0 -0 -0 -0 -0 -0 -0 -0 -1 -0 -0 -1 -1 -1 -0 -0 -0 nan
nan 0 0 -0 -0 -0 -0 -0 -0 -0 -0 -0 -0 -0 -0 -0 -0 -0 -0 -0 -0 -0 -0 -0 -0 -0 -0 -0 -0 -0 -0 -0 -0 -0 -0 -0 -0 -0 -0 -0 -0 -0 -0 -0 -0 0 0 0 0 -0 -0 -1 -1 -0 -0 -0 -0 -0 -0 -0 -0 -0 -0 -0 -0 -0 -0 -1 nan
nan 0 0 -0 -0 -0 -0 -0 -0 -0 -0 -0 -0 -0 -0 -0 -0 -0 -0 -0 -0 -0 -0 -0 -0 -0 -0 -0 -0 -0 -0 -0 -0 -0 -0 -0 -0 -0 -0 -0 -0 -0 -0 -0 -0 -0 0 0 0 -0 -0 -0 -1 -0 -0 -0 -0 -0 -0 -0 -0 -0 -0 -0 -0 -0 -1 -1 nan
nan 0 0 -0 -0 -0 -0 -0 -0 -0 -0 -0 -0 -0 -0 -0 -0 -0 -0 -0 0 0 0 -0 -0 -0 -0 -0 -0 -0 -0 -0 -0 -0 -0 -0 -0 -0 -0 -0 -0 -0 -0 -1 -1 -0 -0 -0 -0 -0 -0 -0 -0 -0 -0 -0 -0 -0 -0 0 0 -0 -0 -0 -0 -0 -0 -1 nan
nan 0 -0 -0 -0 -0 -0 -0 -0 -0 -0 -0 -0 -0 -0 0 0 0 0 -0 0 0 0 0 -0 -0 -0 0 -0 -0 -0 -0 -0 -0 -0 -0 -0 -0 -0 -0 -0 -0 -0 -1 -1 -1 -0 -0 -0 -0 -0 -0 -0 -0 -0 -0 -0 -0 -0 0 0 0 -0 -0 -0 -0 -1 -1 nan
nan 0 -0 -0 -0 -0 -0 -0 -0 -0 -0 -0 -0 -0 -0 -0 0 0 0 -0 -0 -0 0 0 0 -0 -0 -0 -0 -0 -0 -0 -0 -0 -0 -0 -0 -0 -0 -0 -1 -1 -1 -1 -1 -1 -1 -0 -0 -0 -0 -0 -0 -0 -0 -0 -0 -0 -0 -0 0 0 -0 -0 -0 -0 -1 -1 nan
nan 0 0 -0 -0 -0 -0 -0 -0 -0 -0 -0 -0 -0 -0 -0 -0 -0 -0 -0 -0 -0 -0 -0 -0 -0 -0 -0 -0 -0 -0 -0 -0 -0 -0 -0 -0 -0 -1 -1 -1 -1 -1 -1 -1 -1 -1 -0 -0 -0 -0 -0 -0 -0 -0 -0 -0 -0 0 -0 -0 0 -0 -0 -0 -1 -1 -1 nan
nan 0 -0 -0 -0 -0 -0 -0 -0 -0 -0 -0 -0 -0 -0 -0 -0 -0 -0 -0 -0 -0 -0 -0 -0 -0 -0 -0 -0 -0 -0 -0 -0 -0 -0 -1 -1 -1 -1 -1 -1 -1 -1 -0 -0 -0 -0 -0 -0 -0 -0 -0 -0 -0 -0 -0 -0 -0 0 0 -0 -0 -0 -0 -0 -0 -1 -1 nan
nan 0 -0 -0 -0 -0 -0 -0 -0 -0 -0 -0 -0 -0 -0 -0 -0 -0 -0 -0 -0 -0 -0 -0 -0 -0 -0 -0 -0 -0 -0 -0 -0 -0 -0 -1 -1 -1 -1 -1 -1 -1 -0 -0 -0 -0 -0 -0 -0 -0 -0 -0 -0 -0 -0 -0 -0 0 0 0 0 0 0 -0 -0 -1 -1 -1 nan
nan 0 -0 -0 -0 -0 -0 -0 -0 -0 -0 -0 -0 -0 -0 -0 -0 -0 -0 -0 -0 -0 -0 -0 -0 -0 -0 -0 -0 -0 -0 -1 -1 -0 -1 -1 -1 -1 -1 -1 -1 -0 -0 -0 -0 -0 -0 -0 -0 -0 -0 -0 -0 -0 -0 -0 0 0 0 0 0 0 0 0 -0 -0 -1 -1 nan
nan 0 -0 -0 -0 -0 -0 -0 -0 -0 -0 -0 -0 -0 -0 -0 -0 -0 -0 -0 -0 -0 -0 -0 -0 -0 -0 -0 -0 -1 -1 -1 -1 -1 -1 -1 -1 -1 -0 -0 -1 -0 -0 -0 -0 -0 -0 -0 0 0 0 -0 -0 0 0 0 0 0 0 1 1 0 0 0 -0 -0 -0 -0 nan
nan 0 -0 -0 -0 -0 -0 -0 -0 -0 -0 -0 -0 -0 -0 -0 -0 -0 -0 -0 -0 -0 -0 -0 -0 -0 -0 -0 -0 -0 -1 -1 -1 -1 -1 -1 -1 -1 -0 -0 -0 -1 -0 -0 -0 -0 -0 -0 -0 0 0 0 0 0 0 0 0 0 1 1 1 0 -0 -0 -0 -0 -0 -0 nan
nan 0 -0 -0 -0 -0 -0 -0 -0 -0 -0 -0 -0 -0 -0 -0 -0 -0 -0 -0 -0 -0 -0 -0 -0 -0 -0 -0 -0 -0 -0 -0 -1 -1 -1 -1 -1 -1 -0 -0 -0 -0 -0 -0 -0 0 -0 -0 -0 -0 0 0 0 0 0 0 0 0 1 1 1 0 -0 -0 -1 -1 -1 -1 nan
nan -0 -0 -0 -0 -0 -0 -0 -0 -0 -0 -0 -0 -0 -0 -0 -0 -0 -0 -0 -0 -0 -0 -0 -0 -0 -0 -0 -0 -0 -0 -0 -0 -1 -1 -1 -1 -1 -0 -0 -0 -0 -0 0 -0 0 0 0 0 -0 -0 -0 0 0 0 1 1 1 1 1 1 0 -0 -1 -1 -1 -1 -1 nan
nan 0 -0 -0 -0 -0 -0 -0 -0 -0 -0 -0 -0 -0 -0 -0 -0 -0 -0 -0 -0 -0 -0 -0 -0 -0 -0 -0 -0 -1 -1 -1 -0 -0 -1 -1 -1 -1 -0 -0 -0 0 0 0 0 0 0 0 0 0 0 0 0 0 0 1 1 1 1 1 1 1 0 -1 -1 -1 -1 -1 nan
nan 0 -0 -0 -0 -0 -0 -0 -0 -0 -0 -0 -0 -0 -0 -0 -0 -0 -0 -0 -0 -0 -0 -0 -0 -0 -0 -0 -0 -1 -1 -1 -1 -0 -0 -0 -0 -0 -0 -0 0 0 0 0 0 0 0 0 -0 -0 -0 -0 0 0 0 0 1 1 1 1 1 0 0 -0 -0 -1 -1 -1 nan
nan 0 0 -0 -0 -0 -0 -0 -0 -0 -0 -0 -0 -0 -0 -0 -0 -0 -0 -0 -0 -0 -0 -0 -0 -0 -0 -0 -1 -1 -1 -0 -0 -0 -0 -0 -0 -0 -0 0 0 0 0 0 0 0 0 0 0 -0 -0 0 0 0 0 0 1 1 1 1 1 0 0 -0 -0 -0 -1 -1 nan
nan 0 0 -0 -0 -0 -0 -0 -0 -0 -0 -0 -0 -0 -0 -0 -0 -0 -0 -0 -0 -0 -0 -0 -0 -0 -0 -0 -0 -1 -1 -0 -0 -0 -0 -0 -0 -0 -0 0 0 0 1 0 0 0 0 0 -0 -0 -0 0 0 0 0 0 1 1 1 1 1 0 0 -0 -0 -0 -1 -1 nan
nan 0 -0 -0 -0 -0 -0 -0 -0 -0 -0 -0 -0 -0 -0 -0 -0 -0 -0 -0 -0 -0 -0 -0 -0 -0 -0 -0 -0 -0 -0 -0 -0 -0 -0 0 -0 -0 -0 0 0 1 1 0 0 0 0 0 -0 -0 0 0 0 0 0 0 1 1 1 1 1 0 0 -0 -0 -1 -1 -0 nan
nan -0 -0 -0 -0 -0 -0 -0 -0 -0 -0 -0 -0 -0 -0 -0 -0 -0 -0 -0 -0 -0 -0 -0 -0 -0 -0 -0 -0 -0 -0 -0 -0 -0 0 0 0 0 0 0 0 1 1 1 0 0 0 0 0 0 0 0 0 0 0 0 1 1 1 1 0 0 -0 -0 -0 -1 -0 -0 nan
nan -0 -0 -0 -0 -0 -0 -0 -0 -0 -0 -0 -0 -0 -0 -0 -0 -0 -0 -0 -0 -0 -0 -0 -0 -0 -1 -1 -0 -0 -0 -0 -0 0 0 0 0 0 -0 0 0 1 1 1 1 0 0 0 0 0 0 0 0 0 1 1 1 1 1 0 0 0 -0 -0 -0 -0 -0 -0 nan
nan -0 -0 -0 -0 -0 -0 -0 -0 -0 -0 -0 -0 -0 -0 -0 -0 -0 -0 -0 -0 -0 -0 -0 -0 -0 -0 -0 -0 -0 -0 -0 -0 -0 0 0 0 0 -0 -0 0 1 1 1 1 0 0 0 0 0 0 0 0 0 1 1 1 1 1 0 0 0 -0 -0 -0 -0 -0 -0 nan
nan -0 -0 -0 -0 -0 -0 -0 -0 -0 -0 -0 -0 -0 -0 -0 -0 -0 -0 -0 -0 -0 -0 -0 -0 -0 -0 -0 -0 -0 -0 -0 -0 -0 0 0 0 0 -0 -0 0 1 1 1 1 0 0 0 0 0 0 0 0 0 1 1 1 1 1 1 0 0 -0 -0 -0 -0 -0 -0 nan
nan -0 -0 -0 -0 -0 -0 -0 -0 -0 -0 -0 -0 -0 -0 -0 -0 -0 -0 -0 -0 -0 -0 -0 -0 -0 -0 -0 -0 0 0 0 0 0 0 0 0 0 -0 -0 -0 0 1 1 1 0 0 0 0 0 0 0 0 1 1 1 1 1 1 1 1 0 0 -0 -0 -0 -0 -0 nan
nan -0 -0 -0 -0 -0 -0 -0 -0 -0 -0 -0 -0 -0 -0 -0 -0 -0 -0 -0 -0 -1 -1 -1 -0 -0 -0 -0 -0 0 0 0 0 0 0 0 0 -0 -0 -1 -1 -0 0 1 1 1 0 0 0 0 0 0 0 1 1 1 1 1 1 1 1 0 0 0 -0 -0 -0 -0 nan
nan -0 -0 -0 -0 -0 -0 -0 -0 -0 -0 -0 -0 -0 -0 -0 -0 -0 -0 -0 -1 -1 -1 -1 -1 -0 0 0 0 0 0 1 1 0 0 0 0 -0 -0 -1 -1 -0 0 0 1 1 0 0 0 0 0 0 0 1 1 1 1 1 1 1 0 0 0 -0 -0 -0 -0 -0 nan
nan -0 -0 -0 -0 -0 -0 -0 -0 -0 -0 -0 -0 -0 -0 -0 -0 -0 -0 -0 -0 -1 -1 -1 -0 -0 0 0 0 -0 -0 0 1 1 0 0 0 0 -0 -0 -0 -0 -0 0 0 1 1 0 0 0 0 0 0 0 1 1 1 0 0 0 0 0 0 -0 -0 -0 -0 -0 nan
nan -0 -0 -0 -0 -0 -0 -0 -0 -0 -0 -0 -0 -0 -0 -0 -0 -0 -0 -0 -0 -0 -0 -0 -0 -0 0 0 0 -0 -0 -0 0 0 0 0 0 -0 -0 -0 -0 -0 -0 -0 0 0 0 0 0 0 0 0 0 0 1 1 1 1 0 0 0 0 0 0 -0 -0 -0 -0 nan
nan nan nan nan nan nan nan nan nan nan nan nan nan nan nan nan nan nan nan nan nan nan nan nan nan nan nan nan nan nan nan nan nan nan nan nan nan nan nan nan nan nan nan nan nan nan nan nan nan nan nan nan nan nan nan nan nan nan nan nan nan nan nan nan nan nan nan nan nan
Wind_Speed
3 2 2 2 2 2 2 2 2 3 4 5 6 7 9 10 11 12 14 14 15 16 17 17 18 19 19 19 19 19 19 19 18 18 18 17 17 18 18 19 19 20 21 21 22 22 23 24 25 25 26 27 27 27 27 26 24 22 21 20 21 22 24 26 27 29 29 29 29
2 2 2 2 2 2 1 1 2 3 4 5 7 8 10 11 12 14 15 15 16 17 17 18 18 18 18 18 18 18 18 18 18 18 18 17 18 18 19 19 20 21 21 22 23 23 24 25 26 26 27 28 28 28 27 26 24 23 22 22 22 24 26 27 29 30 30 30 29
2 2 2 2 1 1 1 1 3 4 5 7 8 10 11 12 13 14 15 16 17 17 18 18 18 18 18 18 18 18 18 17 17 18 18 18 18 19 19 20 21 21 22 23 23 24 25 26 27 27 28 29 29 29 28 27 25 23 22 23 24 26 27 29 30 31 30 30 30
2 2 2 1 0 1 2 3 5 6 7 8 10 11 12 13 14 15 16 17 17 17 18 18 18 18 17 17 17 17 17 17 17 17 18 18 19 19 20 21 21 22 23 24 24 25 26 27 28 28 29 29 29 29 28 27 25 24 24 25 26 27 29 30 31 31 31 31 31
3 2 2 1 1 2 3 5 6 7 8 10 11 12 13 14 15 16 16 17 17 17 17 17 17 17 17 17 17 17 17 17 17 18 18 19 19 20 21 21 22 23 24 25 25 26 27 28 29 29 30 30 29 29 28 27 26 25 25 26 28 29 30 31 31 31 31 32 32
3 2 1 1 2 3 4 5 6 8 9 10 12 13 14 15 16 16 16 16 16 17 17 17 17 17 16 16 16 17 17 17 17 18 19 19 20 21 21 22 23 24 25 26 27 28 29 30 30 30 30 30 30 29 28 27 26 26 27 28 29 30 31 31 32 32 32 33 33
3 2 2 1 2 3 4 6 7 8 9 11 12 13 14 15 15 16 16 16 16 17 17 17 16 16 16 16 17 17 17 17 18 18 19 20 21 21 22 23 24 25 26 27 28 29 30 31 31 31 31 31 30 29 28 27 27 27 28 30 30 31 31 32 32 32 33 33 33
4 3 2 2 3 4 5 6 7 9 10 11 13 14 14 15 15 15 16 16 16 16 17 17 16 16 16 17 17 17 18 18 18 19 20 20 21 22 23 24 25 27 28 29 30 31 31 32 31 31 31 31 30 29 29 28 28 28 29 30 31 31 32 32 33 33 33 33 33
4 3 3 3 4 4 5 7 8 9 11 12 13 14 15 15 15 15 15 16 16 16 17 16 16 16 17 17 17 17 18 18 19 20 20 21 22 23 25 26 27 28 29 30 31 31 32 32 32 31 31 31 30 30 29 29 29 29 30 31 32 32 33 33 33 33 33 32 32
4 4 4 4 4 5 6 7 8 10 11 13 14 14 15 15 15 15 15 16 16 16 16 16 16 17 17 17 17 18 18 19 20 20 21 22 23 25 26 27 29 30 31 31 32 32 32 32 32 31 31 31 30 30 30 29 30 30 31 31 32 33 34 34 34 33 33 32 32
5 5 5 5 5 6 7 8 9 11 12 13 14 14 15 15 15 15 16 16 16 16 16 16 16 17 17 17 18 18 19 20 20 21 22 23 24 26 27 29 30 31 32 32 32 32 32 32 32 32 31 31 30 30 30 30 30 31 31 32 33 34 35 35 35 34 33 32 32
6 6 5 6 6 7 8 9 10 11 12 13 14 14 14 15 15 15 15 15 15 15 15 16 16 17 17 18 18 19 19 20 21 22 23 25 26 27 29 30 31 32 32 32 32 32 32 32 32 32 32 31 31 31 30 30 31 31 32 33 34 35 36 36 35 34 33 32 32
6 6 6 6 7 8 9 10 11 12 13 13 14 14 14 15 15 15 15 15 15 15 15 16 16 17 17 18 19 19 20 21 22 23 24 26 27 29 30 31 32 33 33 33 32 32 32 32 32 32 32 32 31 31 31 30 31 32 33 34 35 35 36 37 36 34 33 32 32
7 6 6 7 7 8 9 11 12 12 13 13 14 14 14 15 15 15 15 15 15 15 15 16 16 17 17 18 19 20 21 22 23 24 26 27 29 30 31 32 33 33 33 33 33 32 32 32 32 32 32 32 32 31 31 30 31 31 33 34 35 36 37 37 36 34 33 32 32
7 7 7 7 8 9 10 11 12 12 13 13 14 14 15 15 15 15 15 15 15 15 15 16 16 17 18 18 19 20 21 23 24 26 27 29 30 31 32 33 33 33 33 33 33 33 32 32 32 32 32 32 32 31 31 30 31 32 33 34 36 37 38 37 36 34 33 32 32
7 7 7 8 8 9 10 11 12 13 13 13 14 14 15 15 15 15 15 15 15 15 15 16 16 17 18 19 20 21 22 24 25 27 29 30 32 33 33 34 34 34 34 33 33 33 33 32 32 32 32 32 31 31 31 31 31 33 34 35 37 38 38 37 35 34 32 32 32
8 7 8 8 9 10 10 11 12 13 13 14 14 14 15 15 15 15 15 15 15 15 15 16 17 17 18 19 21 22 24 25 27 29 30 32 33 34 34 34 34 34 33 33 33 33 33 33 32 32 31 31 31 31 31 31 32 34 35 37 38 39 38 37 35 33 33 33 33
8 8 8 8 9 10 10 11 12 13 13 14 14 15 15 15 14 15 15 15 15 15 16 16 17 18 19 20 22 23 25 27 29 30 32 33 34 34 34 34 34 34 33 33 33 33 33 33 33 32 31 31 30 30 31 32 34 35 37 39 39 39 38 36 35 34 33 34 34
8 8 8 9 9 10 10 11 12 13 13 14 14 14 15 15 14 14 15 15 15 15 16 17 18 19 20 21 23 25 27 28 30 31 33 33 34 34 34 34 34 33 33 33 33 33 33 33 33 32 31 31 31 31 32 33 35 37 38 40 40 39 38 37 36 35 35 35 35
8 8 8 9 9 9 10 11 12 13 13 14 14 14 14 14 14 14 14 15 15 16 17 18 19 20 22 23 25 26 28 30 31 33 34 34 34 34 34 33 33 33 33 33 33 33 33 33 32 32 31 30 31 32 33 35 36 38 39 40 39 39 38 38 37 37 36 36 36
8 8 8 9 9 9 10 11 12 13 13 14 14 14 14 14 14 14 14 15 16 17 18 19 20 22 23 25 27 28 30 31 32 33 34 34 34 34 33 33 33 33 33 33 33 33 33 33 32 31 30 30 31 32 34 36 37 38 39 39 39 39 39 39 38 38 38 37 36
8 8 8 8 9 10 11 12 12 13 13 14 14 14 14 14 14 14 15 16 17 18 19 20 22 23 25 27 28 30 31 32 33 34 34 34 33 33 32 32 32 32 33 33 33 33 33 32 31 31 30 30 31 32 34 35 37 38 39 39 39 40 40 40 40 40 39 38 35
8 8 8 9 9 10 11 12 13 13 13 14 14 14 14 14 14 14 15 16 17 19 20 22 23 25 27 28 30 31 32 33 34 34 34 33 33 32 32 32 32 32 33 33 33 33 33 32 31 30 30 30 31 32 33 35 36 37 38 39 40 41 41 42 41 41 39 37 34
8 8 9 9 10 11 12 13 13 13 13 13 14 14 14 14 14 15 16 17 18 20 22 23 25 26 28 29 31 32 33 34 34 34 33 32 32 32 32 32 32 32 33 33 33 32 32 31 30 30 30 30 31 32 33 34 35 36 38 39 40 41 42 43 42 41 38 35 32
8 9 9 10 11 12 12 13 13 13 13 13 13 13 13 14 15 16 17 18 20 21 23 24 26 28 29 30 32 32 33 33 33 33 33 32 32 32 32 32 32 32 32 33 33 32 31 29 29 29 29 29 30 31 32 33 34 36 37 39 40 41 42 42 41 39 36 33 30
9 9 10 11 12 12 13 13 13 12 12 12 13 13 13 14 15 17 18 19 21 22 24 26 27 29 30 31 32 33 33 33 32 32 32 32 32 32 32 32 32 32 32 32 32 32 31 29 28 27 27 28 29 30 32 33 34 36 37 39 40 41 41 40 39 37 34 31 28
9 10 11 12 12 12 12 12 12 12 12 12 12 13 14 15 16 18 19 21 22 24 25 27 28 30 31 32 33 33 33 32 32 31 31 31 31 32 32 32 32 32 32 32 32 32 31 29 28 27 26 27 28 29 31 33 35 37 38 39 39 39 38 37 36 35 32 29 28
10 11 12 12 12 12 12 12 11 11 11 12 13 14 15 16 18 19 21 22 23 25 26 28 29 31 32 32 32 32 32 32 32 31 31 31 31 32 32 32 32 32 32 33 32 32 30 29 27 26 26 26 27 29 31 34 36 37 38 38 38 37 36 35 33 32 30 29 28
11 11 12 12 12 12 12 11 11 11 11 12 13 14 16 17 19 20 22 23 25 26 27 29 30 31 32 32 32 32 32 32 31 31 31 32 32 32 32 32 33 33 33 33 32 31 30 28 27 26 26 26 28 30 32 34 35 36 37 37 36 35 34 33 31 30 29 28 29
11 12 12 12 12 11 11 11 11 11 12 13 14 15 17 18 20 22 23 24 26 27 28 30 31 31 32 32 32 32 31 31 31 32 32 32 32 33 33 33 33 33 33 33 32 31 29 28 27 27 27 27 28 30 32 33 35 36 36 35 35 33 32 30 29 28 28 28 29
11 11 11 11 11 11 10 10 11 11 12 13 15 16 18 19 21 22 24 25 27 28 29 30 31 31 31 31 31 31 31 32 32 32 32 32 33 33 33 33 33 34 33 33 32 31 29 28 28 28 28 28 29 30 32 33 34 34 34 33 32 31 29 28 28 28 28 28 28
10 10 10 10 10 10 10 10 10 11 13 14 16 17 19 20 22 23 24 26 27 29 30 31 31 31 31 31 31 31 31 32 32 32 32 32 33 34 34 34 34 34 34 33 32 31 30 29 29 30 30 29 29 30 31 32 33 33 32 31 30 28 28 27 27 28 28 27 28
9 9 9 9 9 9 9 10 11 12 13 15 16 18 19 21 22 24 25 26 28 29 30 30 31 31 31 31 31 31 31 32 32 33 33 33 33 34 34 34 34 34 34 33 33 32 31 31 31 31 30 29 29 30 30 31 31 30 29 29 28 28 27 27 27 27 27 28 28
8 8 8 8 8 8 9 10 11 13 14 16 17 19 20 21 23 24 26 27 28 29 30 30 30 30 30 31 31 31 32 32 33 33 33 34 34 34 35 35 35 35 34 34 34 33 33 32 32 31 30 29 29 29 30 30 29 28 28 28 28 28 27 27 27 27 27 28 28
7 7 7 7 8 9 9 11 12 13 15 16 18 19 20 22 23 25 26 28 29 30 30 30 30 31 31 31 31 31 32 32 33 33 34 34 34 35 35 35 35 35 35 35 34 34 34 33 32 31 29 28 28 28 28 28 28 28 28 28 28 28 27 27 28 28 28 28 28
6 6 7 7 8 9 10 11 13 14 16 17 18 20 21 22 24 25 27 28 29 30 30 30 31 31 31 31 31 31 32 32 33 34 34 34 34 35 35 36 36 36 36 35 35 35 34 33 32 30 28 28 28 27 27 27 27 28 28 28 28 28 28 28 28 28 28 28 28
6 6 7 8 9 10 11 12 14 15 16 18 19 20 22 23 25 26 27 29 30 30 30 31 31 31 31 31 31 31 32 32 33 33 34 34 34 35 35 36 36 36 36 36 36 35 34 33 31 29 27 27 27 27 27 27 27 28 29 29 29 29 29 29 28 28 28 28 29
6 6 7 8 9 10 12 13 15 16 17 18 19 20 22 24 25 27 28 29 30 30 31 31 31 31 31 31 31 32 32 32 33 33 34 34 34 34 35 36 36 36 36 36 36 35 33 31 29 27 26 26 26 27 27 28 28 28 29 29 29 29 29 29 28 28 29 29 31
6 7 8 9 10 11 13 14 15 16 17 19 20 21 23 24 26 27 28 29 30 30 30 30 30 31 31 31 32 32 33 33 33 33 33 34 34 34 34 35 36 36 36 36 35 34 32 30 28 26 25 25 25 26 27 28 28 28 29 29 30 30 29 29 29 29 30 32 33
6 7 8 9 11 12 14 15 16 17 18 19 20 22 24 25 27 28 29 29 29 30 30 30 30 31 31 31 32 32 33 33 33 33 33 34 34 34 34 35 36 36 36 35 34 33 31 29 26 25 24 24 24 25 26 27 28 28 29 29 30 30 30 30 30 30 32 35 36
7 8 9 10 12 13 14 15 16 17 18 19 21 23 24 26 27 28 29 29 29 29 30 30 31 31 31 31 32 33 34 34 34 34 34 34 34 34 34 35 36 36 35 33 32 31 29 27 25 24 23 23 23 25 26 27 27 28 29 29 30 30 30 31 31 32 33 36 38
Wind_Direction
159 156 147 131 119 107 94 74 54 37 25 15 7 2 359 357 354 353 353 352 350 347 344 342 340 338 335 333 330 326 323 319 316 314 313 314 315 317 319 321 323 325 326 327 327 327 327 327 327 327 327 327 328 328 328 328 326 323 317 310 304 301 300 301 302 304 305 306 305
179 175 166 154 144 132 109 78 43 25 12 5 1 358 355 354 352 351 350 349 347 345 343 341 338 336 333 329 326 323 319 317 314 313 313 314 316 318 320 323 324 326 327 327 328 328 328 327 327 327 327 328 328 328 328 327 325 321 314 308 304 301 301 302 303 305 306 305 305
201 195 184 171 163 139 59 12 2 1 359 357 355 353 352 350 349 348 347 345 345 343 341 338 336 333 329 326 322 319 317 315 313 313 314 316 318 320 322 324 325 326 327 328 328 328 328 328 328 328 328 328 328 327 326 325 323 318 311 306 303 302 302 303 304 305 305 305 304
205 199 192 193 209 334 344 346 347 349 350 350 350 349 348 347 346 345 344 343 342 341 338 336 332 329 326 323 320 318 315 314 314 315 316 318 320 322 323 325 326 327 328 328 328 329 329 329 328 328 328 328 327 326 325 323 320 315 309 305 304 303 303 304 306 306 305 304 304
201 199 203 235 309 333 341 344 345 346 347 347 348 347 346 344 343 342 341 340 338 336 335 332 329 326 324 321 319 317 316 315 316 317 318 320 322 323 325 326 327 328 328 329 329 329 329 329 329 328 328 327 326 324 323 321 317 312 308 306 305 305 305 306 307 306 305 304 304
201 204 215 273 320 334 339 341 344 345 345 345 346 346 344 342 341 340 338 336 334 332 331 329 326 324 323 321 319 318 317 317 317 319 320 322 324 325 326 327 328 329 329 330 330 330 330 329 328 328 327 326 324 323 321 319 315 310 308 306 306 307 307 307 307 307 306 305 305
211 212 225 282 316 328 334 338 340 342 343 344 345 345 343 341 339 337 334 332 330 329 327 326 324 324 323 321 320 319 319 319 319 320 322 324 325 326 327 328 329 330 330 331 331 330 330 329 328 327 326 325 323 322 320 317 313 310 308 308 308 309 308 308 308 307 307 306 305
222 228 246 284 308 322 329 334 338 341 342 343 343 342 341 339 337 334 331 329 326 324 323 324 324 324 323 322 321 320 320 320 321 322 323 325 326 327 328 329 330 331 331 331 331 330 330 328 327 326 325 323 322 320 318 316 313 311 310 309 310 310 309 309 309 308 307 307 306
228 239 262 286 302 315 324 331 335 339 341 341 341 340 339 337 334 331 328 325 322 322 322 323 324 324 324 323 322 321 321 321 322 323 325 326 327 329 330 331 331 332 332 332 331 330 329 327 326 324 323 322 321 319 318 316 314 312 311 310 311 311 311 311 310 310 309 308 306
235 246 264 284 299 311 321 328 333 336 338 339 338 337 336 335 332 329 326 323 322 321 321 323 324 324 324 323 322 322 322 323 323 325 326 327 329 330 331 332 332 332 332 331 330 329 328 326 325 324 323 322 320 319 318 316 315 313 312 311 311 311 312 312 312 311 310 308 306
245 255 268 284 298 309 318 327 331 333 335 337 336 335 334 333 331 328 326 324 322 320 320 322 323 324 323 323 323 323 323 324 325 326 327 328 329 330 331 332 332 332 331 331 330 328 327 326 324 324 323 322 320 319 318 317 315 314 312 312 311 311 312 312 312 311 309 307 305
248 259 272 285 298 309 318 325 329 331 333 335 334 333 332 330 329 327 325 323 321 320 321 322 323 323 324 323 324 324 324 325 326 327 328 329 330 330 331 331 331 331 331 330 329 328 327 326 325 324 323 322 321 319 318 317 315 313 312 311 311 311 311 311 312 311 308 306 304
249 260 273 288 300 311 320 325 328 330 332 333 333 332 330 329 327 326 324 322 321 321 321 322 323 324 324 325 325 325 325 326 326 327 328 329 330 330 330 331 331 330 330 329 329 328 327 326 325 324 322 322 321 319 318 316 314 312 310 310 310 309 310 310 311 310 308 305 303
251 261 275 290 303 313 320 324 327 329 330 331 331 330 329 327 326 325 324 323 322 322 322 323 323 324 325 325 325 325 325 326 327 327 328 329 329 330 330 330 330 330 330 329 329 328 328 327 326 324 322 321 320 319 317 315 312 310 308 307 307 308 309 310 310 309 308 305 302
255 265 279 293 306 314 319 323 325 328 329 330 330 329 328 327 325 325 324 323 322 322 323 324 324 325 325 325 325 325 325 326 327 327 328 329 329 330 330 330 330 330 330 330 329 329 328 327 326 324 322 320 319 317 316 313 309 307 305 305 305 307 308 310 310 309 307 304 302
260 272 285 299 308 315 319 322 325 327 328 329 329 328 328 326 325 324 324 323 323 323 324 324 324 324 324 324 325 325 325 326 327 328 329 329 330 330 331 331 331 331 331 331 330 329 329 327 326 324 322 319 318 316 313 309 306 304 303 303 305 307 308 309 310 308 306 303 301
266 279 291 302 310 316 320 323 325 327 328 328 328 327 327 325 325 324 323 323 324 324 325 325 324 324 324 324 325 326 327 327 328 329 330 330 331 332 332 332 332 332 332 331 330 329 328 327 325 323 321 318 316 313 309 306 303 302 302 303 305 307 309 310 309 308 305 303 301
272 284 296 305 312 317 321 324 326 327 327 327 327 326 325 325 324 324 324 324 325 326 326 325 325 324 325 325 326 327 328 329 329 330 331 331 332 333 333 333 333 333 332 331 330 329 327 326 325 323 320 317 314 310 306 303 301 301 302 304 306 308 309 310 309 307 306 304 302
277 289 299 308 314 319 323 325 326 326 326 325 325 325 325 324 325 325 326 326 328 328 327 326 326 326 326 327 328 329 330 330 331 331 332 332 333 334 334 334 334 333 332 331 329 328 327 325 324 322 319 315 311 307 304 302 301 302 303 305 307 308 309 309 308 307 306 305 304
282 292 302 309 316 321 324 325 326 325 324 324 324 325 325 325 326 327 329 329 330 329 328 327 327 328 329 329 330 331 331 331 332 333 333 334 334 335 335 335 334 333 332 330 329 327 326 324 323 320 317 313 309 306 304 303 303 303 304 305 307 307 308 308 308 308 307 307 306
285 294 303 310 318 323 325 325 324 323 323 323 324 325 326 327 328 330 331 331 331 330 330 330 330 331 331 331 332 332 332 333 333 334 334 335 335 335 335 335 333 332 331 330 328 327 325 324 322 319 315 311 307 305 304 303 304 304 305 306 306 306 307 307 308 308 308 309 309
286 295 305 313 319 323 325 324 322 322 322 323 325 326 327 328 330 332 332 332 332 332 332 332 332 333 333 333 334 334 334 334 335 335 335 336 336 336 335 335 333 331 330 329 328 327 325 323 320 317 313 309 306 304 303 304 304 304 305 305 305 306 306 307 308 308 309 310 311
287 297 306 314 319 323 323 322 321 321 322 324 326 327 329 330 332 333 334 334 333 333 333 333 334 334 334 335 335 335 335 335 336 336 336 336 336 336 335 334 332 331 329 328 327 325 323 321 318 314 310 307 305 304 303 303 303 304 304 305 305 305 306 307 308 309 310 311 312
289 299 308 314 319 321 321 321 321 322 324 326 327 328 330 331 333 334 335 334 334 334 334 334 335 335 335 335 335 336 336 337 337 337 337 337 336 336 335 334 332 330 328 327 326 324 321 318 315 311 308 306 304 303 303 303 303 303 303 304 305 306 307 307 309 310 312 313 313
292 302 310 315 318 319 320 321 322 323 325 326 327 329 331 333 334 335 335 334 334 334 335 335 335 335 335 335 336 336 337 337 337 337 337 337 337 336 335 333 331 329 327 326 324 322 319 316 312 309 307 305 304 303 303 302 302 302 303 304 305 306 308 309 311 312 313 314 314
295 305 311 314 316 318 320 321 323 324 325 327 329 331 333 334 335 335 335 334 335 335 335 335 335 335 335 335 336 336 337 338 338 338 338 337 337 336 335 332 330 328 326 325 323 321 318 315 311 308 306 305 305 304 303 303 302 302 303 304 305 307 309 311 313 314 316 316 315
299 306 311 313 316 318 320 321 323 324 326 328 330 332 334 335 336 336 335 335 335 335 335 335 335 335 335 335 336 337 337 338 339 339 338 337 336 334 333 331 329 327 325 324 322 320 318 315 312 309 307 306 305 304 303 303 302 303 304 305 307 309 311 312 314 316 317 317 316
301 306 310 313 316 318 319 321 323 326 328 330 332 334 335 336 336 336 336 335 335 334 334 334 334 334 335 335 336 337 338 339 339 339 338 337 335 334 332 330 328 327 325 324 322 320 318 315 312 309 308 307 306 304 303 303 303 304 305 307 309 311 313 314 316 317 317 316 316
301 306 310 314 316 318 320 322 324 327 329 331 333 335 336 337 336 336 335 335 334 334 334 334 334 334 335 336 337 338 339 340 340 339 338 336 335 333 332 330 328 327 326 325 323 321 319 316 312 309 308 307 305 304 303 303 304 305 307 308 310 312 314 316 316 316 316 315 313
302 307 311 315 317 319 321 322 325 327 330 332 335 336 337 337 336 335 335 335 334 334 334 334 334 334 335 336 337 338 339 340 340 339 338 335 334 332 332 330 329 327 327 326 324 322 319 315 312 309 308 307 305 304 304 304 305 306 308 310 312 314 315 316 315 315 314 313 311
303 308 312 315 317 318 320 323 326 329 332 335 336 336 336 336 335 335 335 334 334 333 333 333 334 335 336 337 338 339 339 339 339 339 337 335 333 332 332 331 329 328 328 327 324 322 318 314 311 310 309 308 306 305 304 304 305 306 308 310 312 314 314 314 314 313 312 310 310
303 308 312 314 315 317 321 324 328 331 334 336 336 335 335 334 334 334 334 333 333 333 333 334 334 335 337 338 339 339 339 339 338 338 337 335 334 332 332 331 330 329 329 327 324 321 318 314 312 310 309 309 307 306 305 305 305 306 308 310 311 312 313 313 312 311 309 308 308
303 307 310 312 314 318 323 327 331 333 334 334 334 334 333 333 333 333 333 332 332 333 333 334 335 336 337 338 338 338 338 338 338 337 337 336 334 333 332 331 330 330 329 327 324 321 318 315 313 311 310 309 308 306 305 304 305 306 307 309 310 311 312 311 310 308 308 307 308
301 305 307 311 316 323 327 331 332 333 333 332 332 332 332 332 332 333 333 333 333 333 334 336 337 337 338 338 338 337 337 337 338 337 337 336 335 333 332 331 331 330 329 326 323 320 318 316 314 312 311 309 307 306 305 305 305 306 307 308 309 309 310 310 309 308 308 309 309
300 304 309 315 323 328 330 331 331 331 330 330 330 331 331 332 332 333 333 333 333 334 335 337 338 338 339 339 339 338 337 337 337 337 337 336 335 333 331 331 331 330 328 326 323 320 318 316 315 313 311 308 306 305 305 305 306 306 307 307 308 308 309 309 310 310 310 311 311
300 307 315 322 327 329 330 329 329 328 328 328 329 330 331 332 332 333 334 334 335 336 337 337 338 338 338 338 338 337 337 337 337 337 337 336 335 333 331 330 330 330 328 325 323 320 318 316 314 312 309 307 305 304 304 305 305 306 307 308 308 308 309 310 311 312 312 311 311
304 313 321 326 327 327 327 326 326 326 327 328 329 330 331 332 333 335 335 336 336 337 337 338 338 338 337 337 336 337 338 338 337 336 336 336 335 333 331 330 329 328 327 325 322 320 318 316 313 310 308 306 304 304 304 305 305 306 308 308 309 310 311 312 311 311 311 310 310
310 318 324 325 325 325 325 325 325 326 327 328 330 331 332 333 335 336 337 338 338 338 338 337 337 337 336 336 336 337 338 339 338 337 336 335 335 333 330 328 327 327 326 324 321 319 317 314 311 308 306 305 304 304 304 305 306 307 308 309 310 311 312 312 311 310 310 310 311
315 321 324 325 324 324 324 324 325 326 328 329 331 332 333 335 337 338 339 339 339 338 337 336 336 336 336 336 336 336 337 338 339 338 337 335 334 333 330 327 325 325 324 323 321 319 316 313 310 307 305 304 303 304 304 306 307 308 309 310 311 312 312 312 311 310 310 312 314
318 322 324 324 324 324 324 325 326 327 329 331 333 334 336 337 338 339 340 340 339 338 337 336 335 336 337 337 336 336 336 338 339 339 338 336 334 332 329 326 324 324 323 323 321 319 316 312 309 306 305 304 303 304 304 306 307 309 310 310 311 312 312 311 311 310 311 314 316
320 324 325 325 325 325 325 326 327 328 330 332 334 336 337 338 339 340 340 340 339 338 337 336 336 336 337 336 336 336 336 337 338 339 338 336 334 331 329 327 325 324 323 323 322 319 316 311 308 306 305 304 304 304 305 307 308 310 310 311 312 311 311 311 311 311 312 315 316
Height
1488 1488 1488 1488 1488 1488 1488 1488 1488 1488 1488 1488 1488 1488 1488 1488 1487 1487 1487 1487 1486 1486 1485 1484 1484 1483 1482 1482 1481 1480 1479 1479 1478 1477 1477 1476 1476 1475 1474 1474 1473 1472 1471 1471 1470 1469 1468 1467 1466 1465 1464 1463 1462 1461 1460 1459 1458 1457 1456 1456 1455 1453 1452 1451 1450 1449 1447 1446 1445
1488 1488 1488 1488 1488 1487 1487 1488 1488 1488 1488 1488 1488 1488 1487 1487 1487 1487 1486 1486 1486 1485 1484 1484 1483 1482 1482 1481 1480 1479 1479 1478 1477 1477 1476 1476 1475 1474 1474 1473 1472 1472 1471 1470 1469 1468 1467 1466 1465 1464 1463 1462 1461 1460 1459 1458 1457 1456 1455 1454 1453 1452 1451 1450 1448 1447 1446 1444 1443
1487 1487 1487 1487 1487 1487 1487 1487 1487 1487 1487 1487 1487 1487 1487 1487 1487 1486 1486 1485 1485 1484 1484 1483 1482 1482 1481 1480 1479 1478 1478 1477 1477 1476 1475 1475 1474 1473 1473 1472 1471 1471 1470 1469 1468 1467 1466 1465 1464 1463 1462 1461 1460 1459 1457 1457 1456 1455 1454 1453 1452 1451 1449 1448 1447 1445 1444 1442 1441
1487 1487 1487 1487 1487 1487 1487 1487 1487 1487 1487 1487 1487 1487 1487 1486 1486 1486 1485 1485 1484 1483 1483 1482 1482 1481 1480 1479 1478 1478 1477 1476 1476 1475 1475 1474 1473 1473 1472 1471 1471 1470 1469 1468 1467 1466 1465 1464 1463 1462 1461 1460 1458 1457 1456 1455 1454 1453 1452 1451 1450 1449 1448 1446 1445 1443 1442 1441 1439
1487 1487 1487 1486 1486 1486 1487 1487 1487 1487 1487 1487 1487 1486 1486 1486 1485 1485 1484 1484 1483 1483 1482 1482 1481 1480 1479 1478 1478 1477 1476 1476 1475 1475 1474 1473 1473 1472 1471 1471 1470 1469 1468 1467 1466 1465 1464 1463 1462 1461 1460 1458 1457 1456 1455 1454 1453 1452 1451 1450 1449 1447 1446 1444 1443 1442 1440 1439 1437
1486 1486 1486 1486 1486 1486 1486 1486 1486 1486 1486 1486 1486 1486 1485 1485 1484 1484 1483 1483 1482 1482 1481 1481 1480 1479 1478 1477 1477 1476 1476 1475 1474 1474 1473 1472 1472 1471 1471 1470 1469 1468 1467 1466 1465 1464 1463 1462 1461 1459 1458 1457 1456 1455 1454 1453 1452 1450 1449 1448 1447 1446 1444 1442 1441 1440 1438 1437 1435
1486 1486 1486 1486 1486 1486 1486 1486 1486 1486 1486 1486 1485 1485 1485 1484 1484 1483 1482 1482 1482 1481 1480 1479 1479 1478 1477 1477 1476 1475 1475 1474 1474 1473 1472 1472 1471 1470 1470 1469 1468 1467 1466 1465 1464 1463 1462 1461 1459 1458 1457 1455 1454 1453 1452 1451 1450 1449 1447 1446 1445 1444 1442 1441 1439 1438 1437 1435 1433
1485 1485 1485 1485 1485 1485 1485 1485 1485 1485 1485 1485 1485 1484 1484 1484 1483 1482 1482 1481 1481 1480 1479 1478 1478 1477 1476 1476 1475 1475 1474 1473 1473 1472 1472 1471 1470 1469 1468 1467 1467 1466 1465 1464 1463 1462 1460 1459 1458 1456 1455 1454 1452 1452 1450 1450 1448 1447 1446 1444 1442 1442 1441 1439 1437 1436 1435 1433 1431
1485 1484 1485 1485 1485 1485 1485 1485 1484 1484 1484 1484 1484 1484 1483 1483 1482 1482 1481 1480 1480 1479 1478 1477 1477 1476 1476 1475 1474 1474 1473 1473 1472 1471 1471 1470 1469 1468 1467 1467 1466 1465 1464 1462 1462 1460 1459 1457 1456 1455 1454 1452 1451 1450 1449 1448 1447 1445 1443 1442 1441 1439 1438 1437 1436 1434 1432 1431 1429
1484 1484 1484 1484 1484 1484 1484 1484 1484 1484 1484 1483 1483 1483 1483 1482 1482 1481 1480 1480 1479 1478 1477 1477 1476 1475 1475 1474 1473 1473 1472 1472 1471 1471 1470 1469 1468 1467 1467 1465 1464 1463 1462 1461 1460 1459 1457 1456 1455 1453 1452 1451 1450 1448 1447 1446 1445 1443 1442 1440 1439 1437 1436 1435 1434 1432 1431 1429 1427
1483 1483 1483 1483 1483 1483 1483 1483 1483 1483 1483 1483 1482 1482 1482 1481 1481 1480 1480 1479 1478 1477 1477 1476 1475 1475 1474 1473 1473 1472 1472 1471 1470 1470 1469 1468 1467 1467 1466 1464 1463 1462 1461 1460 1459 1457 1456 1455 1453 1452 1450 1449 1448 1447 1445 1444 1443 1441 1440 1438 1437 1435 1433 1432 1431 1430 1428 1427 1425
1482 1482 1482 1483 1483 1483 1483 1482 1482 1482 1482 1482 1482 1481 1481 1480 1480 1479 1479 1478 1477 1477 1476 1475 1474 1474 1473 1473 1472 1472 1471 1470 1469 1469 1468 1467 1466 1466 1464 1463 1462 1461 1460 1459 1457 1456 1455 1453 1452 1450 1448 1447 1446 1445 1443 1442 1441 1439 1437 1436 1435 1433 1432 1430 1429 1428 1427 1425 1424
1482 1482 1482 1482 1482 1482 1482 1482 1482 1482 1481 1481 1481 1480 1480 1479 1479 1478 1478 1477 1477 1476 1475 1474 1473 1473 1472 1472 1471 1471 1470 1469 1468 1468 1467 1466 1465 1464 1463 1462 1461 1460 1459 1457 1456 1455 1453 1452 1450 1448 1447 1445 1444 1443 1442 1441 1439 1437 1436 1434 1433 1432 1430 1428 1427 1426 1425 1423 1422
1481 1481 1481 1481 1481 1481 1481 1481 1481 1481 1480 1480 1480 1479 1479 1478 1478 1477 1477 1476 1476 1475 1474 1473 1473 1472 1472 1471 1470 1470 1469 1468 1467 1467 1466 1465 1464 1463 1462 1461 1460 1458 1457 1456 1454 1453 1451 1450 1448 1447 1445 1444 1442 1441 1440 1439 1437 1436 1435 1433 1431 1430 1428 1427 1425 1424 1422 1421 1420
1481 1481 1481 1481 1481 1480 1480 1480 1480 1480 1480 1479 1479 1479 1478 1477 1477 1477 1476 1475 1475 1474 1473 1473 1472 1472 1471 1470 1470 1469 1468 1467 1467 1466 1465 1464 1463 1462 1461 1459 1458 1457 1455 1454 1452 1451 1450 1448 1447 1445 1443 1442 1440 1439 1438 1437 1436 1435 1433 1432 1430 1428 1427 1425 1423 1422 1421 1420 1418
1480 1480 1480 1480 1480 1480 1480 1479 1479 1479 1479 1478 1478 1478 1477 1477 1476 1476 1475 1475 1474 1473 1473 1472 1471 1471 1470 1470 1469 1468 1467 1467 1466 1465 1464 1463 1462 1460 1459 1458 1456 1455 1453 1452 1451 1449 1448 1447 1445 1444 1442 1440 1439 1437 1437 1435 1434 1433 1432 1430 1428 1427 1425 1423 1422 1421 1419 1418 1416
1479 1479 1479 1479 1479 1479 1479 1478 1478 1478 1478 1478 1477 1477 1477 1476 1475 1475 1474 1474 1473 1472 1472 1471 1471 1470 1469 1469 1468 1467 1467 1466 1464 1463 1462 1461 1460 1459 1457 1456 1455 1453 1452 1450 1449 1447 1446 1445 1443 1442 1441 1439 1437 1436 1435 1434 1432 1431 1429 1428 1426 1425 1423 1421 1420 1419 1417 1416 1414
1479 1479 1479 1479 1478 1478 1478 1478 1477 1477 1477 1477 1477 1476 1476 1475 1475 1474 1473 1473 1472 1472 1471 1470 1470 1469 1468 1468 1467 1466 1466 1464 1463 1462 1461 1460 1458 1457 1456 1454 1453 1452 1450 1448 1447 1446 1444 1443 1442 1440 1439 1437 1436 1435 1433 1432 1431 1429 1427 1426 1424 1422 1421 1419 1418 1417 1416 1414 1412
1478 1478 1478 1478 1477 1477 1477 1477 1477 1477 1476 1476 1476 1475 1475 1474 1474 1473 1472 1472 1471 1471 1470 1470 1469 1468 1468 1467 1466 1465 1464 1463 1462 1461 1460 1458 1457 1456 1454 1452 1451 1450 1448 1447 1446 1444 1442 1441 1440 1438 1437 1435 1434 1433 1432 1430 1428 1427 1425 1423 1422 1420 1418 1417 1416 1415 1413 1412 1411
1477 1477 1477 1477 1477 1477 1476 1476 1476 1476 1476 1476 1475 1475 1474 1473 1473 1472 1472 1471 1470 1470 1469 1469 1468 1467 1467 1466 1465 1464 1463 1462 1461 1459 1458 1457 1455 1454 1452 1451 1449 1448 1447 1446 1444 1442 1441 1439 1438 1436 1435 1434 1432 1431 1429 1428 1426 1424 1423 1421 1419 1418 1416 1415 1414 1412 1411 1410 1408
1477 1477 1477 1476 1476 1476 1476 1475 1475 1475 1475 1475 1474 1474 1473 1472 1472 1472 1471 1470 1470 1469 1468 1468 1467 1466 1466 1465 1464 1463 1462 1461 1459 1458 1457 1455 1454 1452 1451 1450 1448 1447 1445 1444 1442 1441 1439 1438 1436 1435 1433 1432 1430 1429 1427 1426 1424 1422 1420 1419 1417 1416 1414 1413 1412 1410 1409 1407 1406
1476 1476 1476 1475 1475 1475 1475 1475 1475 1474 1474 1474 1473 1473 1472 1472 1471 1471 1470 1469 1469 1468 1467 1467 1466 1465 1464 1463 1462 1461 1460 1459 1458 1457 1455 1453 1452 1451 1450 1448 1447 1445 1443 1442 1441 1439 1437 1436 1434 1433 1432 1430 1429 1427 1426 1424 1422 1420 1418 1417 1415 1413 1412 1411 1409 1408 1407 1405 1404
1475 1475 1475 1475 1474 1474 1474 1474 1474 1473 1473 1473 1472 1472 1472 1471 1470 1470 1469 1468 1468 1467 1467 1466 1465 1464 1463 1462 1461 1460 1458 1457 1456 1455 1453 1452 1451 1449 1448 1447 1445 1443 1442 1441 1439 1437 1436 1434 1432 1431 1430 1429 1427 1425 1424 1422 1420 1418 1416 1414 1413 1411 1410 1408 1407 1406 1404 1403 1402
1474 1474 1474 1474 1474 1473 1473 1473 1473 1473 1472 1472 1472 1471 1471 1470 1469 1469 1468 1468 1467 1467 1466 1465 1464 1463 1462 1461 1460 1459 1457 1456 1455 1453 1452 1451 1449 1448 1446 1445 1444 1442 1441 1439 1437 1436 1435 1433 1431 1430 1428 1427 1426 1424 1422 1421 1419 1417 1415 1413 1411 1409 1407 1406 1405 1403 1402 1401 1400
1473 1473 1473 1473 1473 1473 1472 1472 1472 1472 1472 1471 1471 1470 1470 1469 1469 1468 1467 1467 1466 1466 1465 1464 1463 1462 1461 1460 1459 1457 1456 1455 1453 1452 1450 1449 1447 1446 1445 1443 1442 1441 1439 1438 1436 1435 1434 1432 1431 1429 1427 1426 1424 1422 1421 1419 1417 1416 1413 1412 1409 1407 1405 1403 1402 1401 1401 1399 1398
1472 1472 1472 1472 1472 1472 1472 1472 1471 1471 1471 1470 1470 1469 1469 1468 1467 1467 1467 1466 1465 1465 1464 1463 1462 1461 1460 1459 1457 1456 1455 1453 1452 1450 1449 1447 1446 1444 1443 1442 1441 1439 1438 1436 1435 1434 1432 1431 1430 1428 1427 1424 1423 1421 1419 1417 1416 1414 1412 1410 1408 1406 1404 1402 1400 1399 1398 1397 1397
1472 1472 1471 1471 1471 1471 1471 1471 1471 1470 1470 1469 1469 1468 1468 1467 1467 1466 1466 1465 1464 1464 1463 1462 1461 1460 1458 1457 1456 1455 1453 1452 1450 1449 1447 1446 1444 1443 1442 1440 1439 1438 1436 1435 1433 1432 1431 1429 1428 1427 1425 1423 1422 1420 1417 1415 1413 1412 1410 1408 1406 1405 1403 1401 1399 1397 1396 1395 1395
1471 1471 1470 1470 1470 1470 1470 1470 1470 1469 1469 1469 1468 1467 1467 1466 1466 1465 1465 1464 1463 1462 1462 1461 1460 1458 1457 1456 1455 1453 1452 1450 1449 1447 1446 1445 1443 1442 1440 1439 1437 1436 1435 1433 1432 1431 1429 1428 1427 1425 1424 1422 1421 1418 1416 1414 1412 1410 1408 1407 1405 1403 1401 1400 1398 1397 1395 1394 1394
1470 1470 1470 1469 1470 1469 1469 1469 1469 1469 1468 1468 1467 1467 1466 1466 1465 1464 1464 1463 1462 1462 1460 1459 1458 1457 1456 1454 1453 1452 1450 1449 1447 1446 1444 1443 1442 1440 1439 1437 1436 1435 1433 1432 1430 1429 1427 1426 1425 1424 1423 1421 1419 1417 1415 1412 1410 1408 1407 1405 1403 1402 1400 1398 1397 1396 1395 1394 1393
1469 1469 1469 1469 1469 1469 1469 1469 1468 1468 1467 1467 1466 1466 1465 1465 1464 1464 1463 1462 1461 1460 1459 1458 1457 1456 1454 1453 1451 1450 1448 1447 1446 1444 1443 1442 1440 1439 1437 1436 1434 1433 1432 1430 1429 1427 1426 1425 1424 1422 1421 1419 1417 1415 1413 1411 1409 1407 1405 1403 1402 1400 1399 1397 1397 1396 1394 1393 1392
1468 1468 1468 1468 1468 1468 1468 1467 1467 1467 1467 1466 1465 1465 1464 1464 1463 1463 1462 1461 1460 1459 1458 1457 1456 1454 1453 1452 1450 1448 1447 1446 1444 1443 1442 1440 1438 1437 1436 1434 1433 1431 1430 1429 1427 1426 1425 1423 1422 1421 1419 1417 1416 1413 1411 1409 1407 1405 1404 1402 1400 1399 1398 1397 1396 1395 1394 1392 1391
1467 1467 1467 1467 1467 1467 1467 1467 1466 1466 1465 1465 1465 1464 1464 1463 1462 1462 1461 1460 1459 1458 1457 1455 1454 1452 1451 1450 1448 1447 1446 1444 1443 1441 1440 1439 1437 1436 1434 1432 1431 1430 1428 1427 1426 1424 1423 1422 1420 1419 1417 1415 1413 1411 1409 1407 1406 1404 1402 1401 1399 1398 1397 1396 1395 1394 1392 1391 1390
1467 1467 1467 1467 1467 1466 1466 1466 1465 1465 1464 1464 1464 1463 1463 1462 1462 1461 1460 1459 1458 1457 1455 1454 1452 1451 1449 1448 1447 1445 1444 1442 1441 1440 1438 1437 1436 1434 1432 1431 1429 1428 1427 1426 1424 1423 1422 1420 1418 1417 1415 1413 1412 1409 1407 1406 1404 1402 1401 1399 1398 1397 1396 1395 1394 1392 1391 1390 1388
1466 1466 1466 1466 1466 1465 1465 1465 1464 1464 1464 1463 1463 1462 1462 1461 1460 1460 1458 1457 1457 1455 1454 1452 1451 1449 1448 1447 1445 1443 1442 1441 1440 1438 1437 1435 1434 1432 1431 1429 1428 1426 1425 1424 1423 1421 1420 1418 1417 1415 1413 1411 1410 1408 1406 1404 1402 1401 1400 1398 1397 1396 1395 1394 1392 1391 1390 1388 1387
1465 1465 1465 1465 1465 1464 1464 1464 1463 1463 1463 1462 1462 1462 1461 1460 1459 1458 1457 1456 1455 1453 1452 1451 1449 1448 1446 1445 1444 1442 1441 1439 1438 1437 1435 1434 1432 1430 1429 1427 1426 1425 1424 1422 1421 1419 1418 1416 1415 1413 1411 1410 1408 1406 1404 1402 1401 1400 1398 1397 1396 1394 1393 1392 1391 1390 1388 1387 1386
1465 1464 1464 1464 1464 1463 1463 1463 1463 1462 1462 1462 1461 1460 1460 1459 1458 1457 1456 1455 1453 1452 1451 1449 1447 1446 1445 1443 1442 1441 1439 1438 1436 1435 1434 1432 1431 1429 1427 1426 1424 1423 1422 1421 1419 1418 1416 1415 1413 1411 1410 1408 1406 1405 1403 1401 1400 1398 1397 1395 1394 1392 1392 1390 1389 1388 1387 1386 1384
1464 1464 1463 1463 1463 1462 1462 1462 1462 1462 1461 1461 1460 1459 1459 1458 1457 1456 1455 1453 1452 1450 1449 1447 1446 1444 1443 1442 1440 1439 1438 1437 1435 1433 1432 1431 1429 1427 1425 1423 1422 1421 1420 1419 1417 1416 1414 1413 1412 1410 1408 1407 1405 1403 1402 1400 1398 1397 1395 1394 1392 1391 1390 1389 1387 1386 1385 1384 1382
1463 1462 1462 1462 1462 1462 1462 1461 1461 1461 1460 1460 1459 1458 1457 1457 1456 1454 1453 1452 1450 1448 1447 1446 1444 1443 1442 1441 1439 1438 1437 1436 1434 1432 1431 1429 1428 1426 1424 1422 1420 1419 1418 1417 1416 1414 1413 1412 1410 1408 1407 1405 1404 1402 1400 1399 1397 1395 1394 1392 1391 1389 1388 1387 1386 1384 1383 1382 1381
1462 1462 1462 1461 1461 1461 1461 1460 1460 1460 1459 1458 1458 1457 1456 1455 1454 1453 1452 1451 1449 1447 1446 1444 1443 1442 1441 1439 1438 1437 1435 1434 1433 1432 1430 1427 1426 1425 1423 1421 1419 1417 1416 1415 1414 1412 1411 1410 1408 1407 1406 1404 1403 1401 1399 1397 1396 1394 1392 1391 1389 1387 1386 1385 1384 1382 1381 1380 1378
1461 1461 1461 1461 1460 1460 1460 1460 1459 1459 1458 1457 1457 1456 1455 1454 1453 1452 1451 1449 1448 1446 1445 1443 1442 1440 1439 1438 1436 1435 1433 1432 1431 1430 1428 1426 1425 1423 1422 1420 1417 1416 1415 1414 1412 1411 1409 1408 1407 1406 1405 1403 1402 1400 1398 1396 1394 1392 1391 1389 1388 1386 1384 1383 1382 1381 1379 1377 1375
1460 1460 1460 1460 1459 1459 1459 1459 1458 1457 1457 1456 1456 1455 1454 1453 1452 1450 1449 1447 1446 1445 1443 1442 1440 1439 1438 1437 1435 1434 1432 1431 1429 1428 1427 1425 1423 1422 1420 1418 1416 1414 1413 1412 1411 1409 1408 1407 1406 1405 1404 1402 1401 1399 1397 1395 1393 1391 1390 1388 1387 1385 1383 1381 1380 1379 1377 1375 1372